Wetterdaten: Mittwoch, 06.01.2016
Datum Zeit Temp. A. Feuchte A. Luftdruck Regen Wind Richtung Richtung Sonnenschein ET UV Solar Taupunkt Windchill Windben Empfang
06.01.2016 00:00 -5,3 C 96 % 1002,9 hPa 0,0 l/m 1,8 km/h (1 Bft) NO 51 0 min 0,000 mm 0,0 UV-I 0 W/m -5,8 C -5,3 C 4,8 km/h (1 Bft) 100,00 %
06.01.2016 00:05 -5,2 C 96 % 1002,7 hPa 0,0 l/m 3,1 km/h (1 Bft) NO 52 0 min 0,000 mm 0,0 UV-I 0 W/m -5,7 C -5,2 C 6,4 km/h (2 Bft) 98,96 %
06.01.2016 00:10 -5,1 C 96 % 1003,0 hPa 0,0 l/m 2,7 km/h (1 Bft) NO 42 0 min 0,000 mm 0,0 UV-I 0 W/m -5,6 C -5,1 C 6,4 km/h (2 Bft) 100,00 %
06.01.2016 00:15 -5,1 C 95 % 1002,9 hPa 0,0 l/m 3,2 km/h (1 Bft) NO 50 0 min 0,000 mm 0,0 UV-I 0 W/m -5,8 C -5,1 C 6,4 km/h (2 Bft) 98,26 %
06.01.2016 00:20 -5,0 C 95 % 1002,9 hPa 0,0 l/m 4,5 km/h (1 Bft) NO 43 0 min 0,000 mm 0,0 UV-I 0 W/m -5,7 C -5,0 C 8,0 km/h (2 Bft) 98,21 %
06.01.2016 00:25 -5,1 C 95 % 1002,6 hPa 0,0 l/m 3,6 km/h (1 Bft) NO 55 0 min 0,000 mm 0,0 UV-I 0 W/m -5,8 C -5,1 C 12,9 km/h (3 Bft) 97,44 %
06.01.2016 00:30 -5,0 C 95 % 1002,6 hPa 0,0 l/m 6,8 km/h (2 Bft) O-NO 65 0 min 0,000 mm 0,0 UV-I 0 W/m -5,7 C -5,5 C 9,7 km/h (2 Bft) 95,76 %
06.01.2016 00:35 -4,9 C 95 % 1002,7 hPa 0,0 l/m 4,9 km/h (1 Bft) O-NO 63 0 min 0,000 mm 0,0 UV-I 0 W/m -5,6 C -4,9 C 8,0 km/h (2 Bft) 97,56 %
06.01.2016 00:40 -4,9 C 95 % 1002,5 hPa 0,0 l/m 7,9 km/h (2 Bft) O-NO 71 0 min 0,000 mm 0,0 UV-I 0 W/m -5,6 C -6,7 C 11,3 km/h (2 Bft) 98,21 %
06.01.2016 00:45 -5,1 C 94 % 1002,5 hPa 0,0 l/m 5,6 km/h (1 Bft) NO 39 0 min 0,000 mm 0,0 UV-I 0 W/m -5,9 C -5,1 C 12,9 km/h (3 Bft) 97,46 %
06.01.2016 00:50 -5,2 C 94 % 1002,4 hPa 0,0 l/m 4,6 km/h (1 Bft) NO 55 0 min 0,000 mm 0,0 UV-I 0 W/m -6,0 C -5,2 C 8,0 km/h (2 Bft) 95,61 %
06.01.2016 00:55 -5,4 C 94 % 1002,4 hPa 0,0 l/m 3,7 km/h (1 Bft) NO 52 0 min 0,000 mm 0,0 UV-I 0 W/m -6,2 C -5,4 C 6,4 km/h (2 Bft) 100,00 %
06.01.2016 01:00 -5,5 C 95 % 1002,3 hPa 0,0 l/m 7,2 km/h (2 Bft) NO 50 0 min 0,000 mm 0,0 UV-I 0 W/m -6,2 C -6,5 C 12,9 km/h (3 Bft) 98,39 %
06.01.2016 01:05 -5,5 C 95 % 1002,2 hPa 0,0 l/m 10,4 km/h (2 Bft) O-NO 71 0 min 0,000 mm 0,0 UV-I 0 W/m -6,2 C -9,9 C 16,1 km/h (3 Bft) 99,12 %
06.01.2016 01:10 -5,5 C 95 % 1002,3 hPa 0,0 l/m 10,0 km/h (2 Bft) O-NO 62 0 min 0,000 mm 0,0 UV-I 0 W/m -6,2 C -9,5 C 14,5 km/h (3 Bft) 99,17 %
06.01.2016 01:15 -5,4 C 95 % 1002,5 hPa 0,0 l/m 9,0 km/h (2 Bft) NO 53 0 min 0,000 mm 0,0 UV-I 0 W/m -6,1 C -8,4 C 16,1 km/h (3 Bft) 100,00 %
06.01.2016 01:20 -5,4 C 95 % 1002,5 hPa 0,0 l/m 7,8 km/h (2 Bft) O 79 0 min 0,000 mm 0,0 UV-I 0 W/m -6,1 C -7,1 C 14,5 km/h (3 Bft) 98,41 %
06.01.2016 01:25 -5,5 C 95 % 1002,5 hPa 0,0 l/m 6,9 km/h (2 Bft) O 84 0 min 0,000 mm 0,0 UV-I 0 W/m -6,2 C -6,1 C 11,3 km/h (2 Bft) 100,00 %
06.01.2016 01:30 -5,7 C 95 % 1002,6 hPa 0,0 l/m 5,0 km/h (1 Bft) O-NO 71 0 min 0,000 mm 0,0 UV-I 0 W/m -6,4 C -5,7 C 8,0 km/h (2 Bft) 98,33 %
06.01.2016 01:35 -5,7 C 95 % 1002,7 hPa 0,0 l/m 6,0 km/h (2 Bft) O 84 0 min 0,000 mm 0,0 UV-I 0 W/m -6,4 C -5,7 C 11,3 km/h (2 Bft) 97,58 %
06.01.2016 01:40 -5,8 C 95 % 1002,8 hPa 0,0 l/m 5,5 km/h (1 Bft) O-NO 69 0 min 0,000 mm 0,0 UV-I 0 W/m -6,5 C -5,8 C 11,3 km/h (2 Bft) 98,17 %
06.01.2016 01:45 -5,8 C 95 % 1002,8 hPa 0,0 l/m 4,0 km/h (1 Bft) O-NO 57 0 min 0,000 mm 0,0 UV-I 0 W/m -6,5 C -5,8 C 8,0 km/h (2 Bft) 98,25 %
06.01.2016 01:50 -5,9 C 95 % 1002,8 hPa 0,0 l/m 4,6 km/h (1 Bft) O-NO 74 0 min 0,000 mm 0,0 UV-I 0 W/m -6,6 C -5,9 C 8,0 km/h (2 Bft) 99,21 %
06.01.2016 01:55 -6,2 C 95 % 1002,8 hPa 0,0 l/m 5,6 km/h (1 Bft) O-NO 71 0 min 0,000 mm 0,0 UV-I 0 W/m -6,9 C -6,2 C 8,0 km/h (2 Bft) 100,00 %
06.01.2016 02:00 -6,2 C 95 % 1002,7 hPa 0,0 l/m 2,5 km/h (1 Bft) O 80 0 min 0,000 mm 0,0 UV-I 0 W/m -6,9 C -6,2 C 6,4 km/h (2 Bft) 99,13 %
06.01.2016 02:05 -6,4 C 95 % 1002,7 hPa 0,0 l/m 2,1 km/h (1 Bft) O 79 0 min 0,000 mm 0,0 UV-I 0 W/m -7,1 C -6,4 C 4,8 km/h (1 Bft) 100,00 %
06.01.2016 02:10 -6,3 C 95 % 1002,8 hPa 0,0 l/m 2,7 km/h (1 Bft) O-NO 76 0 min 0,000 mm 0,0 UV-I 0 W/m -7,0 C -6,3 C 4,8 km/h (1 Bft) 99,22 %
06.01.2016 02:15 -6,3 C 95 % 1002,9 hPa 0,0 l/m 2,6 km/h (1 Bft) O-NO 68 0 min 0,000 mm 0,0 UV-I 0 W/m -7,0 C -6,3 C 4,8 km/h (1 Bft) 96,43 %
06.01.2016 02:20 -6,3 C 95 % 1002,9 hPa 0,0 l/m 1,6 km/h (1 Bft) O-NO 68 0 min 0,000 mm 0,0 UV-I 0 W/m -7,0 C -6,3 C 3,2 km/h (1 Bft) 98,39 %
06.01.2016 02:25 -6,3 C 95 % 1002,8 hPa 0,0 l/m 2,1 km/h (1 Bft) O-NO 68 0 min 0,000 mm 0,0 UV-I 0 W/m -7,0 C -6,3 C 3,2 km/h (1 Bft) 99,15 %
06.01.2016 02:30 -6,3 C 95 % 1002,8 hPa 0,0 l/m 3,0 km/h (1 Bft) O-NO 66 0 min 0,000 mm 0,0 UV-I 0 W/m -7,0 C -6,3 C 6,4 km/h (2 Bft) 97,52 %
06.01.2016 02:35 -6,2 C 96 % 1002,9 hPa 0,0 l/m 4,7 km/h (1 Bft) O-NO 57 0 min 0,000 mm 0,0 UV-I 0 W/m -6,7 C -6,2 C 8,0 km/h (2 Bft) 95,88 %
06.01.2016 02:40 -6,2 C 96 % 1002,9 hPa 0,0 l/m 5,4 km/h (1 Bft) O-NO 57 0 min 0,000 mm 0,0 UV-I 0 W/m -6,7 C -6,2 C 8,0 km/h (2 Bft) 96,21 %
06.01.2016 02:45 -6,2 C 96 % 1002,8 hPa 0,0 l/m 6,3 km/h (2 Bft) O-NO 57 0 min 0,000 mm 0,0 UV-I 0 W/m -6,7 C -6,2 C 9,7 km/h (2 Bft) 96,52 %
06.01.2016 02:50 -6,2 C 96 % 1002,8 hPa 0,0 l/m 6,0 km/h (2 Bft) O-NO 69 0 min 0,000 mm 0,0 UV-I 0 W/m -6,7 C -6,2 C 8,0 km/h (2 Bft) 96,67 %
06.01.2016 02:55 -6,3 C 96 % 1002,9 hPa 0,0 l/m 7,4 km/h (2 Bft) O-NO 67 0 min 0,000 mm 0,0 UV-I 0 W/m -6,8 C -7,5 C 12,9 km/h (3 Bft) 96,61 %
06.01.2016 03:00 -6,3 C 96 % 1002,9 hPa 0,0 l/m 6,9 km/h (2 Bft) O-NO 58 0 min 0,000 mm 0,0 UV-I 0 W/m -6,8 C -6,9 C 12,9 km/h (3 Bft) 99,15 %
06.01.2016 03:05 -6,3 C 96 % 1003,0 hPa 0,0 l/m 6,6 km/h (2 Bft) O-NO 65 0 min 0,000 mm 0,0 UV-I 0 W/m -6,8 C -6,5 C 9,7 km/h (2 Bft) 98,97 %
06.01.2016 03:10 -6,3 C 96 % 1003,1 hPa 0,0 l/m 6,7 km/h (2 Bft) O-NO 74 0 min 0,000 mm 0,0 UV-I 0 W/m -6,8 C -6,6 C 11,3 km/h (2 Bft) 98,45 %
06.01.2016 03:15 -6,3 C 96 % 1003,1 hPa 0,0 l/m 6,4 km/h (2 Bft) O-NO 75 0 min 0,000 mm 0,0 UV-I 0 W/m -6,8 C -6,2 C 11,3 km/h (2 Bft) 96,69 %
06.01.2016 03:20 -6,3 C 96 % 1003,3 hPa 0,0 l/m 4,6 km/h (1 Bft) O-SO 114 0 min 0,000 mm 0,0 UV-I 0 W/m -6,8 C -6,3 C 11,3 km/h (2 Bft) 97,37 %
06.01.2016 03:25 -6,3 C 96 % 1003,1 hPa 0,0 l/m 2,5 km/h (1 Bft) O 89 0 min 0,000 mm 0,0 UV-I 0 W/m -6,8 C -6,3 C 4,8 km/h (1 Bft) 98,39 %
06.01.2016 03:30 -6,3 C 96 % 1003,1 hPa 0,0 l/m 3,2 km/h (1 Bft) O 90 0 min 0,000 mm 0,0 UV-I 0 W/m -6,8 C -6,3 C 6,4 km/h (2 Bft) 98,15 %
06.01.2016 03:35 -6,3 C 96 % 1003,1 hPa 0,0 l/m 2,9 km/h (1 Bft) O-NO 65 0 min 0,000 mm 0,0 UV-I 0 W/m -6,8 C -6,3 C 4,8 km/h (1 Bft) 99,17 %
06.01.2016 03:40 -6,3 C 96 % 1003,1 hPa 0,0 l/m 3,3 km/h (1 Bft) O-NO 61 0 min 0,000 mm 0,0 UV-I 0 W/m -6,8 C -6,3 C 4,8 km/h (1 Bft) 100,00 %
06.01.2016 03:45 -6,3 C 96 % 1003,2 hPa 0,0 l/m 3,7 km/h (1 Bft) O-NO 69 0 min 0,000 mm 0,0 UV-I 0 W/m -6,8 C -6,3 C 4,8 km/h (1 Bft) 99,12 %
06.01.2016 03:50 -6,3 C 96 % 1003,3 hPa 0,0 l/m 1,8 km/h (1 Bft) O-NO 69 0 min 0,000 mm 0,0 UV-I 0 W/m -6,8 C -6,3 C 4,8 km/h (1 Bft) 99,17 %
06.01.2016 03:55 -6,3 C 96 % 1003,3 hPa 0,0 l/m 0,8 km/h (0 Bft) O-NO 69 0 min 0,000 mm 0,0 UV-I 0 W/m -6,8 C -6,3 C 3,2 km/h (1 Bft) 99,13 %
06.01.2016 04:00 -6,3 C 96 % 1003,3 hPa 0,0 l/m 0,5 km/h (0 Bft) O-NO 69 0 min 0,000 mm 0,0 UV-I 0 W/m -6,8 C -6,3 C 1,6 km/h (1 Bft) 98,37 %
06.01.2016 04:05 -6,2 C 96 % 1003,0 hPa 0,0 l/m 2,9 km/h (1 Bft) NO 53 0 min 0,000 mm 0,0 UV-I 0 W/m -6,7 C -6,2 C 6,4 km/h (2 Bft) 97,14 %
06.01.2016 04:10 -6,2 C 96 % 1002,9 hPa 0,0 l/m 5,5 km/h (1 Bft) O-NO 63 0 min 0,000 mm 0,0 UV-I 0 W/m -6,7 C -6,2 C 9,7 km/h (2 Bft) 100,00 %
06.01.2016 04:15 -6,2 C 96 % 1002,9 hPa 0,0 l/m 7,5 km/h (2 Bft) O-NO 67 0 min 0,000 mm 0,0 UV-I 0 W/m -6,7 C -7,6 C 12,9 km/h (3 Bft) 98,35 %
06.01.2016 04:20 -6,2 C 96 % 1002,8 hPa 0,0 l/m 6,6 km/h (2 Bft) O-NO 59 0 min 0,000 mm 0,0 UV-I 0 W/m -6,7 C -6,4 C 9,7 km/h (2 Bft) 97,46 %
06.01.2016 04:25 -6,2 C 96 % 1003,0 hPa 0,0 l/m 4,9 km/h (1 Bft) O-SO 103 0 min 0,000 mm 0,0 UV-I 0 W/m -6,7 C -6,2 C 8,0 km/h (2 Bft) 99,15 %
06.01.2016 04:30 -6,2 C 95 % 1003,0 hPa 0,0 l/m 4,7 km/h (1 Bft) O 91 0 min 0,000 mm 0,0 UV-I 0 W/m -6,9 C -6,2 C 9,7 km/h (2 Bft) 99,13 %
06.01.2016 04:35 -6,2 C 95 % 1002,8 hPa 0,0 l/m 4,7 km/h (1 Bft) O-NO 57 0 min 0,000 mm 0,0 UV-I 0 W/m -6,9 C -6,2 C 12,9 km/h (3 Bft) 98,21 %
06.01.2016 04:40 -6,2 C 95 % 1002,7 hPa 0,0 l/m 8,1 km/h (2 Bft) O-NO 71 0 min 0,000 mm 0,0 UV-I 0 W/m -6,9 C -8,3 C 16,1 km/h (3 Bft) 96,67 %
06.01.2016 04:45 -6,3 C 95 % 1002,9 hPa 0,0 l/m 5,4 km/h (1 Bft) NO 47 0 min 0,000 mm 0,0 UV-I 0 W/m -7,0 C -6,3 C 12,9 km/h (3 Bft) 97,46 %
06.01.2016 04:50 -6,3 C 95 % 1003,0 hPa 0,0 l/m 3,2 km/h (1 Bft) O-NO 67 0 min 0,000 mm 0,0 UV-I 0 W/m -7,0 C -6,3 C 8,0 km/h (2 Bft) 96,67 %
06.01.2016 04:55 -6,3 C 95 % 1003,0 hPa 0,0 l/m 5,8 km/h (2 Bft) O-NO 65 0 min 0,000 mm 0,0 UV-I 0 W/m -7,0 C -6,3 C 8,0 km/h (2 Bft) 96,61 %
06.01.2016 05:00 -6,4 C 95 % 1002,9 hPa 0,0 l/m 5,3 km/h (1 Bft) O-NO 58 0 min 0,000 mm 0,0 UV-I 0 W/m -7,1 C -6,4 C 8,0 km/h (2 Bft) 97,25 %
06.01.2016 05:05 -6,4 C 95 % 1002,9 hPa 0,0 l/m 4,3 km/h (1 Bft) NO 54 0 min 0,000 mm 0,0 UV-I 0 W/m -7,1 C -6,4 C 8,0 km/h (2 Bft) 97,62 %
06.01.2016 05:10 -6,4 C 95 % 1002,9 hPa 0,0 l/m 3,5 km/h (1 Bft) NO 51 0 min 0,000 mm 0,0 UV-I 0 W/m -7,1 C -6,4 C 6,4 km/h (2 Bft) 99,13 %
06.01.2016 05:15 -6,4 C 95 % 1003,0 hPa 0,0 l/m 3,9 km/h (1 Bft) O-NO 65 0 min 0,000 mm 0,0 UV-I 0 W/m -7,1 C -6,4 C 6,4 km/h (2 Bft) 100,00 %
06.01.2016 05:20 -6,4 C 95 % 1002,9 hPa 0,0 l/m 2,4 km/h (1 Bft) NO 36 0 min 0,000 mm 0,0 UV-I 0 W/m -7,1 C -6,4 C 4,8 km/h (1 Bft) 99,19 %
06.01.2016 05:25 -6,4 C 95 % 1002,9 hPa 0,0 l/m 3,5 km/h (1 Bft) NO 42 0 min 0,000 mm 0,0 UV-I 0 W/m -7,1 C -6,4 C 6,4 km/h (2 Bft) 97,46 %
06.01.2016 05:30 -6,5 C 95 % 1003,0 hPa 0,0 l/m 4,4 km/h (1 Bft) NO 47 0 min 0,000 mm 0,0 UV-I 0 W/m -7,2 C -6,5 C 6,4 km/h (2 Bft) 100,00 %
06.01.2016 05:35 -6,6 C 95 % 1003,0 hPa 0,0 l/m 7,1 km/h (2 Bft) O-NO 57 0 min 0,000 mm 0,0 UV-I 0 W/m -7,3 C -7,5 C 9,7 km/h (2 Bft) 98,17 %
06.01.2016 05:40 -6,7 C 95 % 1002,9 hPa 0,0 l/m 5,6 km/h (1 Bft) NO 48 0 min 0,000 mm 0,0 UV-I 0 W/m -7,4 C -6,7 C 8,0 km/h (2 Bft) 99,21 %
06.01.2016 05:45 -6,8 C 95 % 1002,9 hPa 0,0 l/m 6,8 km/h (2 Bft) NO 35 0 min 0,000 mm 0,0 UV-I 0 W/m -7,5 C -7,3 C 9,7 km/h (2 Bft) 99,12 %
06.01.2016 05:50 -6,8 C 95 % 1002,9 hPa 0,0 l/m 6,7 km/h (2 Bft) NO 49 0 min 0,000 mm 0,0 UV-I 0 W/m -7,5 C -7,2 C 9,7 km/h (2 Bft) 99,15 %
06.01.2016 05:55 -6,8 C 95 % 1002,9 hPa 0,0 l/m 5,5 km/h (1 Bft) NO 43 0 min 0,000 mm 0,0 UV-I 0 W/m -7,5 C -6,8 C 8,0 km/h (2 Bft) 98,26 %
06.01.2016 06:00 -6,9 C 94 % 1003,0 hPa 0,0 l/m 4,6 km/h (1 Bft) NO 40 0 min 0,000 mm 0,0 UV-I 0 W/m -7,7 C -6,9 C 8,0 km/h (2 Bft) 100,00 %
06.01.2016 06:05 -6,9 C 95 % 1003,2 hPa 0,0 l/m 4,0 km/h (1 Bft) O-NO 65 0 min 0,000 mm 0,0 UV-I 0 W/m -7,6 C -6,9 C 6,4 km/h (2 Bft) 100,00 %
06.01.2016 06:10 -6,9 C 94 % 1003,3 hPa 0,0 l/m 6,2 km/h (2 Bft) O-NO 77 0 min 0,000 mm 0,0 UV-I 0 W/m -7,7 C -6,9 C 11,3 km/h (2 Bft) 100,00 %
06.01.2016 06:15 -6,9 C 95 % 1003,3 hPa 0,0 l/m 8,8 km/h (2 Bft) O-NO 61 0 min 0,000 mm 0,0 UV-I 0 W/m -7,6 C -9,8 C 14,5 km/h (3 Bft) 100,00 %
06.01.2016 06:20 -6,9 C 95 % 1003,3 hPa 0,0 l/m 8,6 km/h (2 Bft) O-NO 74 0 min 0,000 mm 0,0 UV-I 0 W/m -7,6 C -9,6 C 16,1 km/h (3 Bft) 98,35 %
06.01.2016 06:25 -6,9 C 95 % 1003,4 hPa 0,0 l/m 3,7 km/h (1 Bft) O 90 0 min 0,000 mm 0,0 UV-I 0 W/m -7,6 C -6,9 C 11,3 km/h (2 Bft) 100,00 %
06.01.2016 06:30 -6,9 C 95 % 1003,3 hPa 0,0 l/m 3,9 km/h (1 Bft) O-NO 74 0 min 0,000 mm 0,0 UV-I 0 W/m -7,6 C -6,9 C 11,3 km/h (2 Bft) 97,64 %
06.01.2016 06:35 -6,9 C 95 % 1003,3 hPa 0,0 l/m 5,7 km/h (1 Bft) O-NO 74 0 min 0,000 mm 0,0 UV-I 0 W/m -7,6 C -6,9 C 9,7 km/h (2 Bft) 98,17 %
06.01.2016 06:40 -6,9 C 95 % 1003,3 hPa 0,0 l/m 4,9 km/h (1 Bft) O 84 0 min 0,000 mm 0,0 UV-I 0 W/m -7,6 C -6,9 C 8,0 km/h (2 Bft) 97,62 %
06.01.2016 06:45 -6,9 C 95 % 1003,3 hPa 0,0 l/m 3,5 km/h (1 Bft) O-SO 109 0 min 0,000 mm 0,0 UV-I 0 W/m -7,6 C -6,9 C 8,0 km/h (2 Bft) 97,32 %
06.01.2016 06:50 -6,9 C 95 % 1003,3 hPa 0,0 l/m 3,4 km/h (1 Bft) NO 53 0 min 0,000 mm 0,0 UV-I 0 W/m -7,6 C -6,9 C 6,4 km/h (2 Bft) 97,50 %
06.01.2016 06:55 -7,0 C 95 % 1003,3 hPa 0,0 l/m 2,5 km/h (1 Bft) NO 53 0 min 0,000 mm 0,0 UV-I 0 W/m -7,7 C -7,0 C 4,8 km/h (1 Bft) 97,46 %
06.01.2016 07:00 -7,0 C 95 % 1003,5 hPa 0,0 l/m 3,5 km/h (1 Bft) O-NO 57 0 min 0,000 mm 0,0 UV-I 0 W/m -7,7 C -7,0 C 6,4 km/h (2 Bft) 97,32 %
06.01.2016 07:05 -6,9 C 95 % 1003,5 hPa 0,0 l/m 3,9 km/h (1 Bft) NO 48 0 min 0,000 mm 0,0 UV-I 0 W/m -7,6 C -6,9 C 6,4 km/h (2 Bft) 96,58 %
06.01.2016 07:10 -6,9 C 95 % 1003,6 hPa 0,0 l/m 4,8 km/h (1 Bft) O-NO 71 0 min 0,000 mm 0,0 UV-I 0 W/m -7,6 C -6,9 C 6,4 km/h (2 Bft) 98,31 %
06.01.2016 07:15 -6,9 C 95 % 1003,6 hPa 0,0 l/m 3,8 km/h (1 Bft) O-NO 64 0 min 0,000 mm 0,0 UV-I 0 W/m -7,6 C -6,9 C 6,4 km/h (2 Bft) 99,15 %
06.01.2016 07:20 -6,9 C 95 % 1003,6 hPa 0,0 l/m 4,2 km/h (1 Bft) N-NO 26 0 min 0,000 mm 0,0 UV-I 0 W/m -7,6 C -6,9 C 6,4 km/h (2 Bft) 99,11 %
06.01.2016 07:25 -6,9 C 95 % 1003,7 hPa 0,0 l/m 4,2 km/h (1 Bft) NO 39 0 min 0,000 mm 0,0 UV-I 0 W/m -7,6 C -6,9 C 6,4 km/h (2 Bft) 99,17 %
06.01.2016 07:30 -6,9 C 95 % 1003,7 hPa 0,0 l/m 4,3 km/h (1 Bft) NO 48 0 min 0,000 mm 0,0 UV-I 0 W/m -7,6 C -6,9 C 6,4 km/h (2 Bft) 97,37 %
06.01.2016 07:35 -6,9 C 95 % 1003,7 hPa 0,0 l/m 3,7 km/h (1 Bft) NO 46 0 min 0,000 mm 0,0 UV-I 0 W/m -7,6 C -6,9 C 4,8 km/h (1 Bft) 100,00 %
06.01.2016 07:40 -6,8 C 95 % 1003,6 hPa 0,0 l/m 4,4 km/h (1 Bft) NO 34 0 min 0,000 mm 0,0 UV-I 0 W/m -7,5 C -6,8 C 6,4 km/h (2 Bft) 98,21 %
06.01.2016 07:45 -6,8 C 95 % 1003,5 hPa 0,0 l/m 4,3 km/h (1 Bft) NO 36 0 min 0,000 mm 0,0 UV-I 0 W/m -7,5 C -6,8 C 6,4 km/h (2 Bft) 96,67 %
06.01.2016 07:50 -6,8 C 95 % 1003,5 hPa 0,0 l/m 5,0 km/h (1 Bft) O-NO 60 0 min 0,000 mm 0,0 UV-I 0 W/m -7,5 C -6,8 C 8,0 km/h (2 Bft) 98,31 %
06.01.2016 07:55 -6,8 C 95 % 1003,5 hPa 0,0 l/m 6,9 km/h (2 Bft) O 86 0 min 0,000 mm 0,0 UV-I 0 W/m -7,5 C -7,4 C 9,7 km/h (2 Bft) 99,10 %
06.01.2016 08:00 -6,7 C 95 % 1003,6 hPa 0,0 l/m 6,5 km/h (2 Bft) O-NO 65 0 min 0,000 mm 0,0 UV-I 0 W/m -7,4 C -6,8 C 11,3 km/h (2 Bft) 99,19 %
06.01.2016 08:05 -6,7 C 95 % 1003,6 hPa 0,0 l/m 6,2 km/h (2 Bft) O-NO 67 0 min 0,000 mm 0,0 UV-I 2 W/m -7,4 C -6,7 C 9,7 km/h (2 Bft) 99,06 %
06.01.2016 08:10 -6,6 C 95 % 1003,8 hPa 0,0 l/m 3,9 km/h (1 Bft) O 90 0 min 0,000 mm 0,0 UV-I 5 W/m -7,3 C -6,6 C 8,0 km/h (2 Bft) 99,15 %
06.01.2016 08:15 -6,6 C 95 % 1003,8 hPa 0,0 l/m 4,5 km/h (1 Bft) O-NO 78 0 min 0,000 mm 0,0 UV-I 5 W/m -7,3 C -6,6 C 11,3 km/h (2 Bft) 100,00 %
06.01.2016 08:20 -6,5 C 95 % 1004,0 hPa 0,0 l/m 4,2 km/h (1 Bft) O-NO 62 0 min 0,000 mm 0,0 UV-I 7 W/m -7,2 C -6,5 C 8,0 km/h (2 Bft) 98,29 %
06.01.2016 08:25 -6,4 C 95 % 1003,9 hPa 0,0 l/m 5,8 km/h (2 Bft) O-NO 76 0 min 0,000 mm 0,0 UV-I 7 W/m -7,1 C -6,4 C 11,3 km/h (2 Bft) 99,08 %
06.01.2016 08:30 -6,4 C 95 % 1004,0 hPa 0,0 l/m 7,7 km/h (2 Bft) O-NO 67 0 min 0,000 mm 0,0 UV-I 9 W/m -7,1 C -8,0 C 14,5 km/h (3 Bft) 100,00 %
06.01.2016 08:35 -6,4 C 95 % 1004,1 hPa 0,0 l/m 5,0 km/h (1 Bft) O 88 0 min 0,000 mm 0,0 UV-I 9 W/m -7,1 C -6,4 C 8,0 km/h (2 Bft) 99,15 %
06.01.2016 08:40 -6,4 C 95 % 1004,1 hPa 0,0 l/m 5,6 km/h (1 Bft) O-NO 61 0 min 0,000 mm 0,0 UV-I 12 W/m -7,1 C -6,4 C 8,0 km/h (2 Bft) 97,25 %
06.01.2016 08:45 -6,3 C 95 % 1004,1 hPa 0,0 l/m 5,3 km/h (1 Bft) O-NO 57 0 min 0,000 mm 0,0 UV-I 16 W/m -7,0 C -6,3 C 6,4 km/h (2 Bft) 97,39 %
06.01.2016 08:50 -6,3 C 95 % 1004,1 hPa 0,0 l/m 4,4 km/h (1 Bft) O-NO 72 0 min 0,000 mm 0,0 UV-I 19 W/m -7,0 C -6,3 C 6,4 km/h (2 Bft) 96,83 %
06.01.2016 08:55 -6,2 C 95 % 1004,1 hPa 0,0 l/m 6,5 km/h (2 Bft) O-NO 68 0 min 0,000 mm 0,0 UV-I 23 W/m -6,9 C -6,3 C 12,9 km/h (3 Bft) 96,61 %
06.01.2016 09:00 -6,2 C 95 % 1004,1 hPa 0,0 l/m 5,8 km/h (2 Bft) NO 55 0 min 0,000 mm 0,0 UV-I 27 W/m -6,9 C -6,2 C 9,7 km/h (2 Bft) 97,44 %
06.01.2016 09:05 -6,2 C 95 % 1004,1 hPa 0,0 l/m 4,8 km/h (1 Bft) NO 34 0 min 0,000 mm 0,0 UV-I 29 W/m -6,9 C -6,2 C 9,7 km/h (2 Bft) 97,17 %
06.01.2016 09:10 -6,2 C 95 % 1004,1 hPa 0,0 l/m 3,2 km/h (1 Bft) NO 43 0 min 0,000 mm 0,0 UV-I 30 W/m -6,9 C -6,2 C 4,8 km/h (1 Bft) 100,00 %
06.01.2016 09:20 -6,1 C 95 % 1004,3 hPa 0,0 l/m 4,9 km/h (1 Bft) NO 40 0 min 0,000 mm 0,0 UV-I 37 W/m -6,8 C -6,1 C 6,4 km/h (2 Bft) 98,29 %
06.01.2016 09:25 -6,1 C 95 % 1004,3 hPa 0,0 l/m 5,9 km/h (2 Bft) N-NO 32 0 min 0,000 mm 0,0 UV-I 38 W/m -6,8 C -6,1 C 8,0 km/h (2 Bft) 100,00 %
06.01.2016 09:30 -6,1 C 95 % 1004,3 hPa 0,0 l/m 5,2 km/h (1 Bft) N-NO 16 0 min 0,000 mm 0,0 UV-I 39 W/m -6,8 C -6,1 C 9,7 km/h (2 Bft) 100,00 %
06.01.2016 09:35 -6,1 C 95 % 1004,2 hPa 0,0 l/m 7,0 km/h (2 Bft) NO 40 0 min 0,000 mm 0,0 UV-I 41 W/m -6,8 C -6,8 C 12,9 km/h (3 Bft) 100,00 %
06.01.2016 09:40 -6,1 C 95 % 1004,1 hPa 0,0 l/m 7,3 km/h (2 Bft) O-NO 59 0 min 0,000 mm 0,0 UV-I 41 W/m -6,8 C -7,2 C 11,3 km/h (2 Bft) 99,15 %
06.01.2016 09:45 -6,0 C 95 % 1004,2 hPa 0,0 l/m 7,7 km/h (2 Bft) O-NO 71 0 min 0,000 mm 0,0 UV-I 41 W/m -6,7 C -7,6 C 11,3 km/h (2 Bft) 100,00 %
06.01.2016 09:50 -6,0 C 95 % 1004,2 hPa 0,0 l/m 8,4 km/h (2 Bft) O-NO 67 0 min 0,000 mm 0,0 UV-I 42 W/m -6,7 C -8,4 C 12,9 km/h (3 Bft) 100,00 %
06.01.2016 09:55 -6,0 C 95 % 1004,2 hPa 0,0 l/m 6,2 km/h (2 Bft) NO 48 0 min 0,000 mm 0,0 UV-I 42 W/m -6,7 C -6,0 C 12,9 km/h (3 Bft) 100,00 %
06.01.2016 10:00 -6,0 C 95 % 1004,4 hPa 0,0 l/m 6,5 km/h (2 Bft) O-NO 65 0 min 0,000 mm 0,0 UV-I 46 W/m -6,7 C -6,1 C 9,7 km/h (2 Bft) 100,00 %
06.01.2016 10:05 -5,9 C 95 % 1004,6 hPa 0,0 l/m 6,2 km/h (2 Bft) O-NO 62 0 min 0,000 mm 0,0 UV-I 54 W/m -6,6 C -5,9 C 9,7 km/h (2 Bft) 99,13 %
06.01.2016 10:10 -5,9 C 95 % 1004,5 hPa 0,0 l/m 5,3 km/h (1 Bft) O-NO 59 0 min 0,000 mm 0,0 UV-I 58 W/m -6,6 C -5,9 C 8,0 km/h (2 Bft) 98,41 %
06.01.2016 10:15 -5,8 C 95 % 1004,7 hPa 0,0 l/m 4,8 km/h (1 Bft) O-NO 66 0 min 0,000 mm 0,0 UV-I 58 W/m -6,5 C -5,8 C 9,7 km/h (2 Bft) 100,00 %
06.01.2016 10:20 -5,8 C 95 % 1004,7 hPa 0,0 l/m 5,2 km/h (1 Bft) O 96 0 min 0,000 mm 0,0 UV-I 54 W/m -6,5 C -5,8 C 9,7 km/h (2 Bft) 97,50 %
06.01.2016 10:25 -5,7 C 95 % 1004,7 hPa 0,0 l/m 3,4 km/h (1 Bft) O 90 0 min 0,000 mm 0,0 UV-I 55 W/m -6,4 C -5,7 C 4,8 km/h (1 Bft) 98,21 %
06.01.2016 10:30 -5,6 C 95 % 1004,6 hPa 0,0 l/m 3,3 km/h (1 Bft) O-NO 76 0 min 0,000 mm 0,0 UV-I 59 W/m -6,3 C -5,6 C 6,4 km/h (2 Bft) 100,00 %
06.01.2016 10:35 -5,6 C 95 % 1004,6 hPa 0,0 l/m 3,7 km/h (1 Bft) O-NO 67 0 min 0,000 mm 0,0 UV-I 61 W/m -6,3 C -5,6 C 6,4 km/h (2 Bft) 98,17 %
06.01.2016 10:40 -5,5 C 95 % 1004,5 hPa 0,0 l/m 4,7 km/h (1 Bft) NO 53 0 min 0,000 mm 0,0 UV-I 61 W/m -6,2 C -5,5 C 6,4 km/h (2 Bft) 95,93 %
06.01.2016 10:45 -5,6 C 95 % 1004,5 hPa 0,0 l/m 1,6 km/h (1 Bft) O-NO 59 0 min 0,000 mm 0,0 UV-I 58 W/m -6,3 C -5,6 C 4,8 km/h (1 Bft) 97,52 %
06.01.2016 10:50 -5,5 C 95 % 1004,5 hPa 0,0 l/m 3,6 km/h (1 Bft) O-NO 57 0 min 0,000 mm 0,0 UV-I 59 W/m -6,2 C -5,5 C 6,4 km/h (2 Bft) 96,67 %
06.01.2016 10:55 -5,4 C 95 % 1004,4 hPa 0,0 l/m 4,2 km/h (1 Bft) NO 55 0 min 0,000 mm 0,0 UV-I 62 W/m -6,1 C -5,4 C 6,4 km/h (2 Bft) 97,17 %
06.01.2016 11:00 -5,4 C 95 % 1004,4 hPa 0,0 l/m 3,9 km/h (1 Bft) NO 53 0 min 0,025 mm 0,0 UV-I 65 W/m -6,1 C -5,4 C 6,4 km/h (2 Bft) 96,83 %
06.01.2016 11:05 -5,4 C 95 % 1004,3 hPa 0,0 l/m 4,4 km/h (1 Bft) O-NO 69 0 min 0,000 mm 0,0 UV-I 63 W/m -6,1 C -5,4 C 6,4 km/h (2 Bft) 97,32 %
06.01.2016 11:10 -5,4 C 95 % 1004,3 hPa 0,0 l/m 4,7 km/h (1 Bft) O-NO 65 0 min 0,000 mm 0,0 UV-I 60 W/m -6,1 C -5,4 C 8,0 km/h (2 Bft) 98,31 %
06.01.2016 11:15 -5,3 C 95 % 1004,4 hPa 0,0 l/m 4,1 km/h (1 Bft) O-NO 63 0 min 0,000 mm 0,0 UV-I 83 W/m -6,0 C -5,3 C 6,4 km/h (2 Bft) 99,19 %
06.01.2016 11:20 -5,2 C 95 % 1004,3 hPa 0,0 l/m 4,5 km/h (1 Bft) NO 35 0 min 0,000 mm 0,0 UV-I 108 W/m -5,9 C -5,2 C 8,0 km/h (2 Bft) 98,90 %
06.01.2016 11:25 -5,1 C 95 % 1004,2 hPa 0,0 l/m 4,3 km/h (1 Bft) NO 34 0 min 0,000 mm 0,0 UV-I 101 W/m -5,8 C -5,1 C 8,0 km/h (2 Bft) 99,28 %
06.01.2016 11:30 -5,0 C 95 % 1004,2 hPa 0,0 l/m 2,7 km/h (1 Bft) NO 34 0 min 0,000 mm 0,0 UV-I 73 W/m -5,7 C -5,0 C 4,8 km/h (1 Bft) 98,25 %
06.01.2016 11:35 -5,1 C 95 % 1004,2 hPa 0,0 l/m 3,6 km/h (1 Bft) NO 43 0 min 0,000 mm 0,0 UV-I 65 W/m -5,8 C -5,1 C 6,4 km/h (2 Bft) 99,15 %
06.01.2016 11:40 -5,1 C 95 % 1004,1 hPa 0,0 l/m 2,5 km/h (1 Bft) O-NO 58 0 min 0,000 mm 0,0 UV-I 60 W/m -5,8 C -5,1 C 6,4 km/h (2 Bft) 98,33 %
06.01.2016 11:45 -5,0 C 95 % 1004,0 hPa 0,0 l/m 3,8 km/h (1 Bft) NO 53 0 min 0,000 mm 0,0 UV-I 71 W/m -5,7 C -5,0 C 6,4 km/h (2 Bft) 97,32 %
06.01.2016 11:50 -4,8 C 95 % 1004,0 hPa 0,0 l/m 1,6 km/h (1 Bft) NO 53 0 min 0,000 mm 0,0 UV-I 103 W/m -5,5 C -4,8 C 4,8 km/h (1 Bft) 99,00 %
06.01.2016 11:55 -4,7 C 94 % 1004,0 hPa 0,0 l/m 3,4 km/h (1 Bft) NO 52 0 min 0,000 mm 0,0 UV-I 111 W/m -5,5 C -4,7 C 6,4 km/h (2 Bft) 99,26 %
06.01.2016 12:00 -4,6 C 94 % 1003,9 hPa 0,0 l/m 2,2 km/h (1 Bft) NO 34 0 min 0,026 mm 0,0 UV-I 82 W/m -5,4 C -4,6 C 4,8 km/h (1 Bft) 100,00 %
06.01.2016 12:05 -4,7 C 94 % 1004,0 hPa 0,0 l/m 2,2 km/h (1 Bft) NO 34 0 min 0,000 mm 0,0 UV-I 77 W/m -5,5 C -4,7 C 4,8 km/h (1 Bft) 100,00 %
06.01.2016 12:10 -4,7 C 93 % 1003,9 hPa 0,0 l/m 1,5 km/h (1 Bft) NO 34 0 min 0,000 mm 0,0 UV-I 84 W/m -5,7 C -4,7 C 3,2 km/h (1 Bft) 100,00 %
06.01.2016 12:15 -4,6 C 93 % 1003,9 hPa 0,0 l/m 1,7 km/h (1 Bft) NO 34 0 min 0,000 mm 0,0 UV-I 74 W/m -5,6 C -4,6 C 3,2 km/h (1 Bft) 100,00 %
06.01.2016 12:20 -4,6 C 94 % 1003,9 hPa 0,0 l/m 1,7 km/h (1 Bft) NO 34 0 min 0,000 mm 0,0 UV-I 59 W/m -5,4 C -4,6 C 3,2 km/h (1 Bft) 99,12 %
06.01.2016 12:25 -4,5 C 93 % 1003,8 hPa 0,0 l/m 0,9 km/h (0 Bft) NO 34 0 min 0,000 mm 0,0 UV-I 61 W/m -5,5 C -4,5 C 3,2 km/h (1 Bft) 97,46 %
06.01.2016 12:30 -4,4 C 93 % 1003,7 hPa 0,0 l/m 0,7 km/h (0 Bft) NO 34 0 min 0,000 mm 0,0 UV-I 66 W/m -5,4 C -4,4 C 3,2 km/h (1 Bft) 96,69 %
06.01.2016 12:35 -4,4 C 93 % 1003,7 hPa 0,0 l/m 1,7 km/h (1 Bft) NO 34 0 min 0,000 mm 0,0 UV-I 80 W/m -5,4 C -4,4 C 4,8 km/h (1 Bft) 97,44 %
06.01.2016 12:40 -4,4 C 92 % 1003,5 hPa 0,0 l/m 0,7 km/h (0 Bft) NO 34 0 min 0,000 mm 0,0 UV-I 81 W/m -5,5 C -4,4 C 3,2 km/h (1 Bft) 97,09 %
06.01.2016 12:45 -4,4 C 92 % 1003,4 hPa 0,0 l/m 2,2 km/h (1 Bft) NO 42 0 min 0,000 mm 0,0 UV-I 75 W/m -5,5 C -4,4 C 3,2 km/h (1 Bft) 97,52 %
06.01.2016 12:50 -4,4 C 92 % 1003,4 hPa 0,0 l/m 2,0 km/h (1 Bft) NO 42 0 min 0,000 mm 0,0 UV-I 71 W/m -5,5 C -4,4 C 3,2 km/h (1 Bft) 96,67 %
06.01.2016 12:55 -4,5 C 92 % 1003,4 hPa 0,0 l/m 1,1 km/h (1 Bft) NO 42 0 min 0,000 mm 0,0 UV-I 80 W/m -5,6 C -4,5 C 3,2 km/h (1 Bft) 97,58 %
06.01.2016 13:00 -4,6 C 92 % 1003,4 hPa 0,0 l/m 0,2 km/h (0 Bft) NO 42 0 min 0,025 mm 0,0 UV-I 83 W/m -5,7 C -4,6 C 1,6 km/h (1 Bft) 99,12 %
06.01.2016 13:05 -4,6 C 92 % 1003,4 hPa 0,0 l/m 0,1 km/h (0 Bft) NO 42 0 min 0,000 mm 0,0 UV-I 58 W/m -5,7 C -4,6 C 1,6 km/h (1 Bft) 98,26 %
06.01.2016 13:10 -4,6 C 93 % 1003,4 hPa 0,0 l/m 0,3 km/h (0 Bft) NO 42 0 min 0,000 mm 0,0 UV-I 48 W/m -5,6 C -4,6 C 1,6 km/h (1 Bft) 99,11 %
06.01.2016 13:15 -4,4 C 93 % 1003,3 hPa 0,0 l/m 0,0 km/h (0 Bft) NO 42 0 min 0,000 mm 0,0 UV-I 50 W/m -5,4 C -4,4 C 0,0 km/h (0 Bft) 100,00 %
06.01.2016 13:20 -4,5 C 92 % 1003,4 hPa 0,0 l/m 0,1 km/h (0 Bft) NO 42 0 min 0,000 mm 0,0 UV-I 51 W/m -5,6 C -4,5 C 1,6 km/h (1 Bft) 98,39 %
06.01.2016 13:25 -4,4 C 92 % 1003,5 hPa 0,0 l/m 0,3 km/h (0 Bft) NO 42 0 min 0,000 mm 0,0 UV-I 50 W/m -5,5 C -4,4 C 1,6 km/h (1 Bft) 98,31 %
06.01.2016 13:30 -4,4 C 92 % 1003,4 hPa 0,0 l/m 0,5 km/h (0 Bft) NO 42 0 min 0,000 mm 0,0 UV-I 77 W/m -5,5 C -4,4 C 1,6 km/h (1 Bft) 99,15 %
06.01.2016 13:35 -4,3 C 92 % 1003,3 hPa 0,0 l/m 0,1 km/h (0 Bft) NO 42 0 min 0,000 mm 0,0 UV-I 60 W/m -5,4 C -4,3 C 1,6 km/h (1 Bft) 98,31 %
06.01.2016 13:40 -4,3 C 92 % 1003,2 hPa 0,0 l/m 0,7 km/h (0 Bft) NO 42 0 min 0,000 mm 0,0 UV-I 70 W/m -5,4 C -4,3 C 3,2 km/h (1 Bft) 99,12 %
06.01.2016 13:45 -4,2 C 92 % 1003,2 hPa 0,0 l/m 1,2 km/h (1 Bft) NO 42 0 min 0,000 mm 0,0 UV-I 100 W/m -5,3 C -4,2 C 3,2 km/h (1 Bft) 100,00 %
06.01.2016 13:50 -4,2 C 92 % 1003,2 hPa 0,0 l/m 0,1 km/h (0 Bft) NO 42 0 min 0,000 mm 0,0 UV-I 97 W/m -5,3 C -4,2 C 1,6 km/h (1 Bft) 99,19 %
06.01.2016 13:55 -4,1 C 92 % 1003,2 hPa 0,0 l/m 0,2 km/h (0 Bft) NO 42 0 min 0,000 mm 0,0 UV-I 90 W/m -5,2 C -4,1 C 1,6 km/h (1 Bft) 100,00 %
06.01.2016 14:00 -4,1 C 92 % 1003,2 hPa 0,0 l/m 0,0 km/h (0 Bft) NO 42 0 min 0,026 mm 0,0 UV-I 89 W/m -5,2 C -4,1 C 0,0 km/h (0 Bft) 99,19 %
06.01.2016 14:05 -4,1 C 92 % 1003,3 hPa 0,0 l/m 0,0 km/h (0 Bft) NO 42 0 min 0,000 mm 0,0 UV-I 92 W/m -5,2 C -4,1 C 0,0 km/h (0 Bft) 99,11 %
06.01.2016 14:10 -4,1 C 91 % 1003,3 hPa 0,0 l/m 0,1 km/h (0 Bft) NO 42 0 min 0,000 mm 0,0 UV-I 98 W/m -5,3 C -4,1 C 1,6 km/h (1 Bft) 97,50 %
06.01.2016 14:15 -4,0 C 91 % 1003,3 hPa 0,0 l/m 0,1 km/h (0 Bft) NO 42 0 min 0,000 mm 0,0 UV-I 86 W/m -5,2 C -4,0 C 1,6 km/h (1 Bft) 97,32 %
06.01.2016 14:20 -4,1 C 92 % 1003,3 hPa 0,0 l/m 3,5 km/h (1 Bft) O-NO 60 0 min 0,000 mm 0,0 UV-I 94 W/m -5,2 C -4,1 C 6,4 km/h (2 Bft) 97,62 %
06.01.2016 14:25 -4,1 C 92 % 1003,3 hPa 0,0 l/m 2,3 km/h (1 Bft) O-NO 60 0 min 0,000 mm 0,0 UV-I 78 W/m -5,2 C -4,1 C 4,8 km/h (1 Bft) 96,43 %
06.01.2016 14:30 -4,1 C 92 % 1003,3 hPa 0,0 l/m 0,5 km/h (0 Bft) O-NO 61 0 min 0,000 mm 0,0 UV-I 71 W/m -5,2 C -4,1 C 3,2 km/h (1 Bft) 98,35 %
06.01.2016 14:35 -4,1 C 93 % 1003,3 hPa 0,0 l/m 1,4 km/h (1 Bft) O-NO 67 0 min 0,000 mm 0,0 UV-I 85 W/m -5,1 C -4,1 C 3,2 km/h (1 Bft) 95,28 %
06.01.2016 14:40 -3,9 C 93 % 1003,3 hPa 0,0 l/m 2,4 km/h (1 Bft) O-SO 117 5 min 0,000 mm 0,0 UV-I 131 W/m -4,9 C -3,9 C 4,8 km/h (1 Bft) 100,00 %
06.01.2016 14:45 -3,8 C 92 % 1003,3 hPa 0,0 l/m 0,2 km/h (0 Bft) O-SO 117 5 min 0,000 mm 0,0 UV-I 118 W/m -4,9 C -3,8 C 1,6 km/h (1 Bft) 98,39 %
06.01.2016 14:50 -3,8 C 92 % 1003,4 hPa 0,0 l/m 0,3 km/h (0 Bft) O-SO 117 5 min 0,000 mm 0,0 UV-I 120 W/m -4,9 C -3,8 C 1,6 km/h (1 Bft) 100,00 %
06.01.2016 14:55 -3,8 C 92 % 1003,4 hPa 0,0 l/m 0,3 km/h (0 Bft) O-SO 117 5 min 0,000 mm 0,0 UV-I 132 W/m -4,9 C -3,8 C 1,6 km/h (1 Bft) 98,31 %
06.01.2016 15:00 -3,8 C 91 % 1003,5 hPa 0,0 l/m 0,0 km/h (0 Bft) O-SO 117 5 min 0,025 mm 0,0 UV-I 138 W/m -5,0 C -3,8 C 0,0 km/h (0 Bft) 99,15 %
06.01.2016 15:05 -4,0 C 92 % 1003,5 hPa 0,0 l/m 0,7 km/h (0 Bft) O-SO 115 5 min 0,000 mm 0,0 UV-I 139 W/m -5,1 C -4,0 C 3,2 km/h (1 Bft) 100,00 %
06.01.2016 15:10 -3,9 C 92 % 1003,5 hPa 0,0 l/m 2,0 km/h (1 Bft) O-SO 115 5 min 0,000 mm 0,0 UV-I 122 W/m -5,0 C -3,9 C 3,2 km/h (1 Bft) 98,39 %
06.01.2016 15:15 -3,9 C 92 % 1003,5 hPa 0,0 l/m 2,0 km/h (1 Bft) O-SO 115 5 min 0,000 mm 0,0 UV-I 122 W/m -5,0 C -3,9 C 3,2 km/h (1 Bft) 100,00 %
06.01.2016 15:20 -3,8 C 91 % 1003,5 hPa 0,0 l/m 2,2 km/h (1 Bft) O-SO 115 5 min 0,000 mm 0,0 UV-I 105 W/m -5,0 C -3,8 C 3,2 km/h (1 Bft) 99,13 %
06.01.2016 15:25 -3,8 C 91 % 1003,5 hPa 0,0 l/m 3,6 km/h (1 Bft) O 80 0 min 0,000 mm 0,0 UV-I 48 W/m -5,0 C -3,8 C 4,8 km/h (1 Bft) 100,00 %
06.01.2016 15:30 -4,0 C 91 % 1003,5 hPa 0,0 l/m 1,7 km/h (1 Bft) O 80 0 min 0,000 mm 0,0 UV-I 27 W/m -5,2 C -4,0 C 3,2 km/h (1 Bft) 99,12 %
06.01.2016 15:35 -4,1 C 92 % 1003,5 hPa 0,0 l/m 0,2 km/h (0 Bft) O 80 0 min 0,000 mm 0,0 UV-I 26 W/m -5,2 C -4,1 C 1,6 km/h (1 Bft) 100,00 %
06.01.2016 15:40 -4,1 C 92 % 1003,5 hPa 0,0 l/m 0,3 km/h (0 Bft) O 80 0 min 0,000 mm 0,0 UV-I 29 W/m -5,2 C -4,1 C 1,6 km/h (1 Bft) 100,00 %
06.01.2016 15:45 -4,1 C 92 % 1003,5 hPa 0,0 l/m 0,0 km/h (0 Bft) O 80 0 min 0,000 mm 0,0 UV-I 24 W/m -5,2 C -4,1 C 0,0 km/h (0 Bft) 100,00 %
06.01.2016 15:50 -4,2 C 92 % 1003,6 hPa 0,0 l/m 0,1 km/h (0 Bft) O 80 0 min 0,000 mm 0,0 UV-I 26 W/m -5,3 C -4,2 C 1,6 km/h (1 Bft) 95,87 %
06.01.2016 15:55 -4,3 C 93 % 1003,6 hPa 0,0 l/m 0,2 km/h (0 Bft) O 80 0 min 0,000 mm 0,0 UV-I 21 W/m -5,3 C -4,3 C 1,6 km/h (1 Bft) 96,40 %
06.01.2016 16:00 -4,4 C 92 % 1003,6 hPa 0,0 l/m 0,0 km/h (0 Bft) O 80 0 min 0,000 mm 0,0 UV-I 16 W/m -5,5 C -4,4 C 0,0 km/h (0 Bft) 100,00 %
06.01.2016 16:10 -4,8 C 93 % 1003,6 hPa 0,0 l/m 1,4 km/h (1 Bft) O 80 0 min 0,025 mm 0,0 UV-I 9 W/m -5,8 C -4,8 C 3,2 km/h (1 Bft) 97,65 %
06.01.2016 16:15 -4,9 C 94 % 1003,7 hPa 0,0 l/m 0,7 km/h (0 Bft) O 80 0 min 0,000 mm 0,0 UV-I 10 W/m -5,7 C -4,9 C 1,6 km/h (1 Bft) 99,16 %
06.01.2016 16:20 -5,0 C 94 % 1003,8 hPa 0,0 l/m 0,0 km/h (0 Bft) O 80 0 min 0,000 mm 0,0 UV-I 7 W/m -5,8 C -5,0 C 0,0 km/h (0 Bft) 98,33 %
06.01.2016 16:25 -5,2 C 94 % 1003,8 hPa 0,0 l/m 1,0 km/h (0 Bft) O 80 0 min 0,000 mm 0,0 UV-I 5 W/m -6,0 C -5,2 C 3,2 km/h (1 Bft) 100,00 %
06.01.2016 16:30 -5,3 C 94 % 1003,8 hPa 0,0 l/m 2,5 km/h (1 Bft) O 80 0 min 0,000 mm 0,0 UV-I 5 W/m -6,1 C -5,3 C 3,2 km/h (1 Bft) 98,17 %
06.01.2016 16:35 -5,3 C 95 % 1003,8 hPa 0,0 l/m 1,9 km/h (1 Bft) O 80 0 min 0,000 mm 0,0 UV-I 0 W/m -6,0 C -5,3 C 3,2 km/h (1 Bft) 99,11 %
06.01.2016 16:40 -5,3 C 95 % 1003,9 hPa 0,0 l/m 2,0 km/h (1 Bft) O 80 0 min 0,000 mm 0,0 UV-I 0 W/m -6,0 C -5,3 C 3,2 km/h (1 Bft) 100,00 %
06.01.2016 16:45 -5,4 C 95 % 1003,9 hPa 0,0 l/m 2,8 km/h (1 Bft) O 80 0 min 0,000 mm 0,0 UV-I 0 W/m -6,1 C -5,4 C 4,8 km/h (1 Bft) 98,31 %
06.01.2016 16:50 -5,6 C 95 % 1003,9 hPa 0,0 l/m 1,2 km/h (1 Bft) O 80 0 min 0,000 mm 0,0 UV-I 0 W/m -6,3 C -5,6 C 3,2 km/h (1 Bft) 100,00 %
06.01.2016 16:55 -5,8 C 95 % 1003,9 hPa 0,0 l/m 0,3 km/h (0 Bft) O 80 0 min 0,000 mm 0,0 UV-I 0 W/m -6,5 C -5,8 C 1,6 km/h (1 Bft) 100,00 %
06.01.2016 17:00 -5,9 C 95 % 1003,9 hPa 0,0 l/m 1,1 km/h (1 Bft) O 80 0 min 0,000 mm 0,0 UV-I 0 W/m -6,6 C -5,9 C 3,2 km/h (1 Bft) 100,00 %
06.01.2016 17:05 -5,8 C 96 % 1003,9 hPa 0,0 l/m 3,2 km/h (1 Bft) O-NO 65 0 min 0,000 mm 0,0 UV-I 0 W/m -6,3 C -5,8 C 4,8 km/h (1 Bft) 100,00 %
06.01.2016 17:10 -5,8 C 95 % 1004,0 hPa 0,0 l/m 3,4 km/h (1 Bft) NO 47 0 min 0,000 mm 0,0 UV-I 0 W/m -6,5 C -5,8 C 4,8 km/h (1 Bft) 98,31 %
06.01.2016 17:15 -5,9 C 95 % 1003,8 hPa 0,0 l/m 2,6 km/h (1 Bft) NO 53 0 min 0,000 mm 0,0 UV-I 0 W/m -6,6 C -5,9 C 4,8 km/h (1 Bft) 100,00 %
06.01.2016 17:20 -5,9 C 96 % 1003,7 hPa 0,0 l/m 3,6 km/h (1 Bft) NO 53 0 min 0,000 mm 0,0 UV-I 0 W/m -6,4 C -5,9 C 4,8 km/h (1 Bft) 97,39 %
06.01.2016 17:25 -5,8 C 96 % 1003,7 hPa 0,0 l/m 2,9 km/h (1 Bft) NO 53 0 min 0,000 mm 0,0 UV-I 0 W/m -6,3 C -5,8 C 4,8 km/h (1 Bft) 99,17 %
06.01.2016 17:30 -5,8 C 96 % 1003,7 hPa 0,0 l/m 3,1 km/h (1 Bft) NO 53 0 min 0,000 mm 0,0 UV-I 0 W/m -6,3 C -5,8 C 4,8 km/h (1 Bft) 96,67 %
06.01.2016 17:35 -5,6 C 96 % 1003,7 hPa 0,0 l/m 2,9 km/h (1 Bft) NO 56 0 min 0,000 mm 0,0 UV-I 0 W/m -6,1 C -5,6 C 4,8 km/h (1 Bft) 97,32 %
06.01.2016 17:40 -5,7 C 95 % 1003,7 hPa 0,0 l/m 4,0 km/h (1 Bft) O-NO 78 0 min 0,000 mm 0,0 UV-I 0 W/m -6,4 C -5,7 C 6,4 km/h (2 Bft) 95,65 %
06.01.2016 17:45 -6,1 C 94 % 1003,6 hPa 0,0 l/m 2,5 km/h (1 Bft) O-NO 71 0 min 0,000 mm 0,0 UV-I 0 W/m -6,9 C -6,1 C 6,4 km/h (2 Bft) 95,73 %
06.01.2016 17:50 -6,7 C 93 % 1003,6 hPa 0,0 l/m 0,2 km/h (0 Bft) O-NO 71 0 min 0,000 mm 0,0 UV-I 0 W/m -7,6 C -6,7 C 1,6 km/h (1 Bft) 97,52 %
06.01.2016 17:55 -6,9 C 94 % 1003,6 hPa 0,0 l/m 0,5 km/h (0 Bft) O-NO 71 0 min 0,000 mm 0,0 UV-I 0 W/m -7,7 C -6,9 C 1,6 km/h (1 Bft) 97,56 %
06.01.2016 18:00 -7,1 C 94 % 1003,6 hPa 0,0 l/m 0,0 km/h (0 Bft) O-NO 71 0 min 0,000 mm 0,0 UV-I 0 W/m -7,9 C -7,1 C 0,0 km/h (0 Bft) 97,39 %
06.01.2016 18:05 -7,2 C 94 % 1003,7 hPa 0,0 l/m 0,1 km/h (0 Bft) O-NO 71 0 min 0,000 mm 0,0 UV-I 0 W/m -8,0 C -7,2 C 1,6 km/h (1 Bft) 98,17 %
06.01.2016 18:10 -7,2 C 95 % 1003,7 hPa 0,0 l/m 1,8 km/h (1 Bft) O-NO 71 0 min 0,000 mm 0,0 UV-I 0 W/m -7,9 C -7,2 C 3,2 km/h (1 Bft) 97,62 %
06.01.2016 18:15 -7,1 C 95 % 1003,7 hPa 0,0 l/m 1,3 km/h (1 Bft) O-NO 71 0 min 0,000 mm 0,0 UV-I 0 W/m -7,8 C -7,1 C 3,2 km/h (1 Bft) 98,17 %
06.01.2016 18:20 -7,3 C 95 % 1003,8 hPa 0,0 l/m 0,6 km/h (0 Bft) O-NO 71 0 min 0,000 mm 0,0 UV-I 0 W/m -8,0 C -7,3 C 3,2 km/h (1 Bft) 99,15 %
06.01.2016 18:25 -7,2 C 96 % 1003,7 hPa 0,0 l/m 0,0 km/h (0 Bft) O-NO 71 0 min 0,000 mm 0,0 UV-I 0 W/m -7,7 C -7,2 C 1,6 km/h (1 Bft) 98,37 %
06.01.2016 18:30 -7,2 C 95 % 1003,7 hPa 0,0 l/m 0,6 km/h (0 Bft) O-NO 71 0 min 0,000 mm 0,0 UV-I 0 W/m -7,9 C -7,2 C 1,6 km/h (1 Bft) 100,00 %
06.01.2016 18:35 -7,1 C 95 % 1003,7 hPa 0,0 l/m 0,9 km/h (0 Bft) O-NO 71 0 min 0,000 mm 0,0 UV-I 0 W/m -7,8 C -7,1 C 3,2 km/h (1 Bft) 98,29 %
06.01.2016 18:40 -7,1 C 96 % 1003,7 hPa 0,0 l/m 1,1 km/h (1 Bft) O-NO 71 0 min 0,000 mm 0,0 UV-I 0 W/m -7,6 C -7,1 C 3,2 km/h (1 Bft) 99,11 %
06.01.2016 18:45 -7,2 C 95 % 1003,6 hPa 0,0 l/m 1,4 km/h (1 Bft) O-NO 71 0 min 0,000 mm 0,0 UV-I 0 W/m -7,9 C -7,2 C 1,6 km/h (1 Bft) 99,13 %
06.01.2016 18:50 -7,3 C 95 % 1003,6 hPa 0,0 l/m 0,7 km/h (0 Bft) O-NO 74 0 min 0,000 mm 0,0 UV-I 0 W/m -8,0 C -7,3 C 1,6 km/h (1 Bft) 100,00 %
06.01.2016 18:55 -7,3 C 95 % 1003,6 hPa 0,0 l/m 0,6 km/h (0 Bft) O 99 0 min 0,000 mm 0,0 UV-I 0 W/m -8,0 C -7,3 C 3,2 km/h (1 Bft) 100,00 %
06.01.2016 19:00 -7,2 C 95 % 1003,7 hPa 0,0 l/m 1,5 km/h (1 Bft) S 173 0 min 0,000 mm 0,0 UV-I 0 W/m -7,9 C -7,2 C 6,4 km/h (2 Bft) 100,00 %
06.01.2016 19:05 -7,3 C 95 % 1003,7 hPa 0,0 l/m 1,4 km/h (1 Bft) S 173 0 min 0,000 mm 0,0 UV-I 0 W/m -8,0 C -7,3 C 3,2 km/h (1 Bft) 100,00 %
06.01.2016 19:10 -7,7 C 94 % 1003,8 hPa 0,0 l/m 1,3 km/h (1 Bft) S 173 0 min 0,000 mm 0,0 UV-I 0 W/m -8,5 C -7,7 C 3,2 km/h (1 Bft) 99,17 %
06.01.2016 19:15 -7,8 C 94 % 1003,8 hPa 0,0 l/m 0,5 km/h (0 Bft) S 173 0 min 0,000 mm 0,0 UV-I 0 W/m -8,6 C -7,8 C 1,6 km/h (1 Bft) 100,00 %
06.01.2016 19:20 -8,0 C 94 % 1003,7 hPa 0,0 l/m 2,2 km/h (1 Bft) S 173 0 min 0,000 mm 0,0 UV-I 0 W/m -8,8 C -8,0 C 3,2 km/h (1 Bft) 99,15 %
06.01.2016 19:25 -7,8 C 95 % 1003,8 hPa 0,0 l/m 0,3 km/h (0 Bft) S 173 0 min 0,000 mm 0,0 UV-I 0 W/m -8,5 C -7,8 C 1,6 km/h (1 Bft) 99,15 %
06.01.2016 19:30 -7,4 C 96 % 1003,8 hPa 0,0 l/m 0,4 km/h (0 Bft) S 173 0 min 0,000 mm 0,0 UV-I 0 W/m -7,9 C -7,4 C 1,6 km/h (1 Bft) 100,00 %
06.01.2016 19:35 -7,4 C 95 % 1003,8 hPa 0,0 l/m 1,4 km/h (1 Bft) S 173 0 min 0,000 mm 0,0 UV-I 0 W/m -8,1 C -7,4 C 3,2 km/h (1 Bft) 99,17 %
06.01.2016 19:40 -7,4 C 95 % 1003,8 hPa 0,0 l/m 0,1 km/h (0 Bft) S 173 0 min 0,000 mm 0,0 UV-I 0 W/m -8,1 C -7,4 C 1,6 km/h (1 Bft) 100,00 %
06.01.2016 19:45 -7,4 C 95 % 1003,8 hPa 0,0 l/m 0,9 km/h (0 Bft) S 173 0 min 0,000 mm 0,0 UV-I 0 W/m -8,1 C -7,4 C 3,2 km/h (1 Bft) 100,00 %
06.01.2016 19:50 -7,6 C 94 % 1003,9 hPa 0,0 l/m 1,6 km/h (1 Bft) S 173 0 min 0,000 mm 0,0 UV-I 0 W/m -8,4 C -7,6 C 3,2 km/h (1 Bft) 97,32 %
06.01.2016 19:55 -7,7 C 94 % 1004,0 hPa 0,0 l/m 2,8 km/h (1 Bft) S 173 0 min 0,000 mm 0,0 UV-I 0 W/m -8,5 C -7,7 C 3,2 km/h (1 Bft) 97,56 %
06.01.2016 20:00 -7,8 C 94 % 1004,0 hPa 0,0 l/m 1,3 km/h (1 Bft) S 173 0 min 0,000 mm 0,0 UV-I 0 W/m -8,6 C -7,8 C 3,2 km/h (1 Bft) 95,76 %
06.01.2016 20:05 -7,6 C 95 % 1004,0 hPa 0,0 l/m 0,1 km/h (0 Bft) S 173 0 min 0,000 mm 0,0 UV-I 0 W/m -8,3 C -7,6 C 1,6 km/h (1 Bft) 97,50 %
06.01.2016 20:10 -7,3 C 96 % 1004,0 hPa 0,0 l/m 0,2 km/h (0 Bft) S 173 0 min 0,000 mm 0,0 UV-I 0 W/m -7,8 C -7,3 C 3,2 km/h (1 Bft) 96,23 %
06.01.2016 20:15 -7,3 C 95 % 1003,9 hPa 0,0 l/m 0,4 km/h (0 Bft) S 173 0 min 0,000 mm 0,0 UV-I 0 W/m -8,0 C -7,3 C 1,6 km/h (1 Bft) 96,77 %
06.01.2016 20:20 -8,0 C 92 % 1003,9 hPa 0,0 l/m 1,3 km/h (1 Bft) SW 227 0 min 0,000 mm 0,0 UV-I 0 W/m -9,1 C -8,0 C 4,8 km/h (1 Bft) 97,32 %
06.01.2016 20:25 -8,4 C 93 % 1004,1 hPa 0,0 l/m 3,2 km/h (1 Bft) SW 231 0 min 0,000 mm 0,0 UV-I 0 W/m -9,3 C -8,4 C 6,4 km/h (2 Bft) 97,50 %
06.01.2016 20:30 -8,3 C 95 % 1004,1 hPa 0,0 l/m 2,1 km/h (1 Bft) W 277 0 min 0,000 mm 0,0 UV-I 0 W/m -9,0 C -8,3 C 4,8 km/h (1 Bft) 95,65 %
06.01.2016 20:35 -8,1 C 95 % 1004,1 hPa 0,0 l/m 0,3 km/h (0 Bft) W 277 0 min 0,000 mm 0,0 UV-I 0 W/m -8,8 C -8,1 C 1,6 km/h (1 Bft) 96,75 %
06.01.2016 20:40 -8,3 C 94 % 1004,1 hPa 0,0 l/m 0,0 km/h (0 Bft) W 277 0 min 0,000 mm 0,0 UV-I 0 W/m -9,1 C -8,3 C 1,6 km/h (1 Bft) 99,11 %
06.01.2016 20:45 -8,3 C 95 % 1004,0 hPa 0,0 l/m 0,0 km/h (0 Bft) W 277 0 min 0,000 mm 0,0 UV-I 0 W/m -9,0 C -8,3 C 1,6 km/h (1 Bft) 99,19 %
06.01.2016 20:50 -8,2 C 95 % 1004,0 hPa 0,0 l/m 0,0 km/h (0 Bft) W 277 0 min 0,000 mm 0,0 UV-I 0 W/m -8,9 C -8,2 C 0,0 km/h (0 Bft) 100,00 %
06.01.2016 21:00 -8,7 C 93 % 1004,1 hPa 0,0 l/m 0,1 km/h (0 Bft) W 277 0 min 0,000 mm 0,0 UV-I 0 W/m -9,6 C -8,7 C 1,6 km/h (1 Bft) 99,70 %
06.01.2016 21:05 -8,6 C 95 % 1004,1 hPa 0,0 l/m 0,1 km/h (0 Bft) S-SW 202 0 min 0,000 mm 0,0 UV-I 0 W/m -9,3 C -8,6 C 1,6 km/h (1 Bft) 96,43 %
06.01.2016 21:10 -8,3 C 95 % 1004,2 hPa 0,0 l/m 0,2 km/h (0 Bft) S-SW 202 0 min 0,000 mm 0,0 UV-I 0 W/m -9,0 C -8,3 C 1,6 km/h (1 Bft) 99,17 %
06.01.2016 21:15 -8,4 C 94 % 1004,5 hPa 0,0 l/m 3,8 km/h (1 Bft) SW 219 0 min 0,000 mm 0,0 UV-I 0 W/m -9,2 C -8,4 C 6,4 km/h (2 Bft) 99,05 %
06.01.2016 21:20 -8,8 C 93 % 1004,3 hPa 0,0 l/m 3,8 km/h (1 Bft) S 170 0 min 0,000 mm 0,0 UV-I 0 W/m -9,7 C -8,8 C 6,4 km/h (2 Bft) 100,00 %
06.01.2016 21:25 -8,8 C 94 % 1004,4 hPa 0,0 l/m 5,1 km/h (1 Bft) S 184 0 min 0,000 mm 0,0 UV-I 0 W/m -9,6 C -8,8 C 8,0 km/h (2 Bft) 100,00 %
06.01.2016 21:30 -8,7 C 94 % 1004,4 hPa 0,0 l/m 4,9 km/h (1 Bft) SW 227 0 min 0,000 mm 0,0 UV-I 0 W/m -9,5 C -8,7 C 6,4 km/h (2 Bft) 100,00 %
06.01.2016 21:35 -8,6 C 95 % 1004,4 hPa 0,0 l/m 5,2 km/h (1 Bft) S 178 0 min 0,000 mm 0,0 UV-I 0 W/m -9,3 C -8,6 C 8,0 km/h (2 Bft) 100,00 %
06.01.2016 21:40 -8,4 C 95 % 1004,4 hPa 0,0 l/m 4,1 km/h (1 Bft) S 170 0 min 0,000 mm 0,0 UV-I 0 W/m -9,1 C -8,4 C 8,0 km/h (2 Bft) 99,15 %
06.01.2016 21:45 -8,3 C 95 % 1004,5 hPa 0,0 l/m 4,2 km/h (1 Bft) S 181 0 min 0,000 mm 0,0 UV-I 0 W/m -9,0 C -8,3 C 9,7 km/h (2 Bft) 99,08 %
06.01.2016 21:50 -8,2 C 95 % 1004,5 hPa 0,0 l/m 5,1 km/h (1 Bft) S-SO 167 0 min 0,000 mm 0,0 UV-I 0 W/m -8,9 C -8,2 C 8,0 km/h (2 Bft) 100,00 %
06.01.2016 21:55 -8,1 C 95 % 1004,5 hPa 0,0 l/m 6,4 km/h (2 Bft) S-SW 196 0 min 0,000 mm 0,0 UV-I 0 W/m -8,8 C -8,0 C 8,0 km/h (2 Bft) 100,00 %
06.01.2016 22:00 -8,0 C 95 % 1004,4 hPa 0,0 l/m 3,1 km/h (1 Bft) S 188 0 min 0,000 mm 0,0 UV-I 0 W/m -8,7 C -8,0 C 8,0 km/h (2 Bft) 100,00 %
06.01.2016 22:05 -7,8 C 95 % 1004,3 hPa 0,0 l/m 1,6 km/h (1 Bft) S 177 0 min 0,000 mm 0,0 UV-I 0 W/m -8,5 C -7,8 C 1,6 km/h (1 Bft) 100,00 %
06.01.2016 22:10 -7,6 C 95 % 1004,3 hPa 0,0 l/m 3,4 km/h (1 Bft) S 184 0 min 0,000 mm 0,0 UV-I 0 W/m -8,3 C -7,6 C 6,4 km/h (2 Bft) 98,33 %
06.01.2016 22:15 -7,6 C 95 % 1004,4 hPa 0,0 l/m 2,0 km/h (1 Bft) SW 234 0 min 0,000 mm 0,0 UV-I 0 W/m -8,3 C -7,6 C 3,2 km/h (1 Bft) 97,50 %
06.01.2016 22:20 -7,6 C 94 % 1004,4 hPa 0,0 l/m 1,4 km/h (1 Bft) SW 236 0 min 0,000 mm 0,0 UV-I 0 W/m -8,4 C -7,6 C 3,2 km/h (1 Bft) 97,39 %
06.01.2016 22:25 -7,6 C 94 % 1004,4 hPa 0,0 l/m 0,8 km/h (0 Bft) SW 236 0 min 0,000 mm 0,0 UV-I 0 W/m -8,4 C -7,6 C 3,2 km/h (1 Bft) 95,76 %
06.01.2016 22:30 -7,6 C 95 % 1004,4 hPa 0,0 l/m 2,3 km/h (1 Bft) SW 235 0 min 0,000 mm 0,0 UV-I 0 W/m -8,3 C -7,6 C 4,8 km/h (1 Bft) 97,30 %
06.01.2016 22:35 -7,4 C 95 % 1004,4 hPa 0,0 l/m 3,2 km/h (1 Bft) S-SW 204 0 min 0,000 mm 0,0 UV-I 0 W/m -8,1 C -7,4 C 4,8 km/h (1 Bft) 96,46 %
06.01.2016 22:40 -7,3 C 95 % 1004,4 hPa 0,0 l/m 3,2 km/h (1 Bft) S-SW 198 0 min 0,000 mm 0,0 UV-I 0 W/m -8,0 C -7,3 C 6,4 km/h (2 Bft) 96,90 %
06.01.2016 22:45 -7,2 C 95 % 1004,5 hPa 0,0 l/m 2,8 km/h (1 Bft) S 190 0 min 0,000 mm 0,0 UV-I 0 W/m -7,9 C -7,2 C 4,8 km/h (1 Bft) 97,46 %
06.01.2016 22:50 -7,2 C 95 % 1004,5 hPa 0,0 l/m 2,7 km/h (1 Bft) S-SW 206 0 min 0,000 mm 0,0 UV-I 0 W/m -7,9 C -7,2 C 4,8 km/h (1 Bft) 98,31 %
06.01.2016 22:55 -7,1 C 95 % 1004,5 hPa 0,0 l/m 2,5 km/h (1 Bft) S-SW 207 0 min 0,000 mm 0,0 UV-I 0 W/m -7,8 C -7,1 C 4,8 km/h (1 Bft) 98,25 %
06.01.2016 23:00 -7,0 C 95 % 1004,5 hPa 0,0 l/m 1,4 km/h (1 Bft) S-SW 207 0 min 0,000 mm 0,0 UV-I 0 W/m -7,7 C -7,0 C 3,2 km/h (1 Bft) 100,00 %
06.01.2016 23:05 -6,9 C 95 % 1004,4 hPa 0,0 l/m 0,5 km/h (0 Bft) S-SW 207 0 min 0,000 mm 0,0 UV-I 0 W/m -7,6 C -6,9 C 1,6 km/h (1 Bft) 99,13 %
06.01.2016 23:10 -6,9 C 95 % 1004,5 hPa 0,0 l/m 0,0 km/h (0 Bft) S-SW 207 0 min 0,000 mm 0,0 UV-I 0 W/m -7,6 C -6,9 C 1,6 km/h (1 Bft) 99,17 %
06.01.2016 23:15 -6,8 C 95 % 1004,5 hPa 0,0 l/m 0,0 km/h (0 Bft) S-SW 207 0 min 0,000 mm 0,0 UV-I 0 W/m -7,5 C -6,8 C 0,0 km/h (0 Bft) 99,13 %
06.01.2016 23:20 -6,7 C 95 % 1004,5 hPa 0,0 l/m 0,8 km/h (0 Bft) S-SW 203 0 min 0,000 mm 0,0 UV-I 0 W/m -7,4 C -6,7 C 3,2 km/h (1 Bft) 100,00 %
06.01.2016 23:25 -6,6 C 95 % 1004,6 hPa 0,0 l/m 2,3 km/h (1 Bft) S-SO 157 0 min 0,000 mm 0,0 UV-I 0 W/m -7,3 C -6,6 C 3,2 km/h (1 Bft) 100,00 %
06.01.2016 23:30 -6,6 C 95 % 1004,4 hPa 0,0 l/m 0,0 km/h (0 Bft) S-SO 157 0 min 0,000 mm 0,0 UV-I 0 W/m -7,3 C -6,6 C 1,6 km/h (1 Bft) 100,00 %
06.01.2016 23:35 -6,5 C 95 % 1004,4 hPa 0,0 l/m 1,3 km/h (1 Bft) S-SW 199 0 min 0,000 mm 0,0 UV-I 0 W/m -7,2 C -6,5 C 3,2 km/h (1 Bft) 98,26 %
06.01.2016 23:40 -6,5 C 95 % 1004,2 hPa 0,0 l/m 1,0 km/h (0 Bft) S-SW 199 0 min 0,000 mm 0,0 UV-I 0 W/m -7,2 C -6,5 C 3,2 km/h (1 Bft) 100,00 %
06.01.2016 23:45 -6,5 C 95 % 1004,2 hPa 0,0 l/m 1,8 km/h (1 Bft) S-SW 202 0 min 0,000 mm 0,0 UV-I 0 W/m -7,2 C -6,5 C 3,2 km/h (1 Bft) 100,00 %
06.01.2016 23:50 -6,5 C 95 % 1004,0 hPa 0,0 l/m 1,6 km/h (1 Bft) S-SW 202 0 min 0,000 mm 0,0 UV-I 0 W/m -7,2 C -6,5 C 3,2 km/h (1 Bft) 98,29 %
06.01.2016 23:55 -6,5 C 95 % 1004,1 hPa 0,0 l/m 1,3 km/h (1 Bft) W 277 0 min 0,000 mm 0,0 UV-I 0 W/m -7,2 C -6,5 C 3,2 km/h (1 Bft) 99,19 %
_ Min-Zeit 21:20 14:10 01:05 - 13:15 - - - - - - 21:20 01:05 13:15 14:35
Minimum _ -8,8 C 91 % 1002,2 hPa - 0,0 km/h (0 Bft) - - - - - - -9,7 C -9,9 C 0,0 km/h (0 Bft) 95,28 %
_ Max-Zeit 14:55 00:00 10:15 00:00 01:05 - - 14:40 12:00 00:00 15:05 14:40 14:45 01:05 00:00
Maximum _ -3,7 C 96 % 1004,7 hPa 0,0 l/m 10,4 km/h
O-NO (2 Bft)
- - 5 min 0,026 mm 0,0 UV-I 139 W/m -4,9 C -3,8 C 16,1 km/h
O (3 Bft)
100,00 %
Durchschnitt _ -6,1 C 94 % 1003,6 hPa #0,0 l/m 3,1 km/h (1 Bft) O-NO - #45 min. #0,152 mm 0,0 UV-I 59 W/m -6,9 C -6,3 C 5,8 km/h (2 Bft) 98,54 %